Regional Weather Roundup
Issued by NWS Nashville, TN

Home | Current Version | Previous Version | Text Only | Print | Product List | Glossary On
Versions: 1 2 3 4 5 6 7 8 9 10 11 12 13 14 15 16 17 18 19 20 21 22 23 24 25 26 27 28 29 30 31 32 33 34 35 36 37 38 39 40 41 42 43 44 45 46 47 48 49 50
000
ASUS44 KOHX 301215
RWROHX
MIDDLE TENNESSEE HOURLY WEATHER ROUNDUP
NATIONAL WEATHER SERVICE NASHVILLE TN
600 AM CST FRI JAN 30 2015

NOTE: "FAIR" INDICATES FEW OR NO CLOUDS BELOW 12,000 FEET WITH
NO SIGNIFICANT WEATHER AND/OR OBSTRUCTIONS TO VISIBILITY.

* THESE REPORTS ARE NOT UNDER NWS QUALITY CONTROL AND MAY NOT
  REPORT WEATHER SUCH AS PRECIPITATION AND FOG.


TNZ005>011-023>034-057-059-062>066-078-080-301300
...NORTHERN MIDDLE TENNESSEE...

CITY           SKY/WX    TMP DP  RH WIND       PRES   REMARKS
CLARKSVILLE    CLOUDY    34  26  72 N10       30.44R WCI  26
CROSSVILLE     CLOUDY    32  26  78 NW9       30.30R WCI  24
GALLATIN       CLOUDY    34  26  72 N8        30.41R WCI  27
DICKSON        CLOUDY    34  25  69 N14       30.39S WCI  24
LEBANON        CLOUDY    34  26  72 NW14      30.38R WCI  25
LIVINGSTON     CLOUDY    33  29  86 N7        30.33R WCI  27
NASHVILLE      CLOUDY    35  24  64 N12G20    30.42R WCI  27
WEST NASHVILLE CLOUDY    34  23  64 N14       30.43  WCI  24
PORTLAND       CLOUDY    32  25  74 NW13      30.39  WCI  22
SMYRNA         CLOUDY    36  26  67 N15       30.42R WCI  27
SPARTA         MOCLDY    36  28  75 NW9       30.34R WCI  29
$$
TNZ056-058-060-061-075>077-079-093>097-301300
...SOUTHERN MIDDLE TENNESSEE...

CITY           SKY/WX    TMP DP  RH WIND       PRES   REMARKS
COLUMBIA       CLOUDY    36  28  75 N7        30.39R WCI  30
LEWISBURG      CLOUDY    36  27  70 N10       30.39R WCI  28
MCMINNVILLE    CLOUDY    34  25  69 N16       30.36R WCI  23
MURFREESBORO   CLOUDY    36  27  70 N10       30.40R WCI  28
SHELBYVILLE    CLOUDY    36  28  75 N10       30.39S WCI  28
TULLAHOMA      CLOUDY    34  27  75 N10       30.36R WCI  26
WINCHESTER     CLOUDY    34  28  80 N12       30.36R WCI  25
$$


...KEY TO REMARKS...
VSB - VISIBILITY IN MILES
WCI - WIND CHILL INDEX
HX  - HEAT INDEX




USA.gov is the U.S. government's official web portal to all federal, state and local government web resources and services.